Saint Bonnet de Bellac- Haute Vienne - France
Donnes mto: jeudi, 19/07/2012
Date Horaire Temp. E. Hum. E. P.atmo. Pluie Vent Direction Direction Ensoleilleme Solaire P. de rose Temp au vent Rafales
19/07/2012 00:00 17,6 C 56 % 1016,7 hPa 0,0 mm 0,0 km/h (0 Bft) SO 225 0 min 0 W/m 8,7 C 17,6 C 3,2 km/h (1 Bft)
19/07/2012 00:10 17,2 C 56 % 1016,6 hPa 0,0 mm 0,7 km/h (0 Bft) O 270 0 min 0 W/m 8,3 C 17,2 C 0,7 km/h (0 Bft)
19/07/2012 00:20 16,9 C 57 % 1016,7 hPa 0,0 mm 0,4 km/h (0 Bft) NO 315 0 min 0 W/m 8,3 C 16,9 C 4,0 km/h (1 Bft)
19/07/2012 00:30 16,6 C 59 % 1016,7 hPa 0,0 mm 1,1 km/h (1 Bft) O 270 0 min 0 W/m 8,6 C 16,6 C 7,6 km/h (2 Bft)
19/07/2012 00:40 16,4 C 61 % 1016,7 hPa 0,0 mm 0,0 km/h (0 Bft) S-SO 202 0 min 0 W/m 8,9 C 16,4 C 0,0 km/h (0 Bft)
19/07/2012 00:50 16,2 C 63 % 1016,8 hPa 0,0 mm 1,8 km/h (1 Bft) S-SO 202 0 min 0 W/m 9,1 C 16,2 C 4,0 km/h (1 Bft)
19/07/2012 01:00 15,9 C 64 % 1016,7 hPa 0,0 mm 1,4 km/h (1 Bft) S-SO 202 0 min 0 W/m 9,1 C 15,9 C 1,4 km/h (1 Bft)
19/07/2012 01:10 15,6 C 66 % 1016,8 hPa 0,0 mm 0,0 km/h (0 Bft) SO 225 0 min 0 W/m 9,3 C 15,6 C 0,0 km/h (0 Bft)
19/07/2012 01:20 15,3 C 67 % 1017,0 hPa 0,0 mm 0,0 km/h (0 Bft) S-SO 202 0 min 0 W/m 9,2 C 15,3 C 2,9 km/h (1 Bft)
19/07/2012 01:30 15,1 C 70 % 1016,9 hPa 0,0 mm 0,0 km/h (0 Bft) O 270 0 min 0 W/m 9,7 C 15,1 C 0,0 km/h (0 Bft)
19/07/2012 01:40 14,8 C 72 % 1016,9 hPa 0,0 mm 2,9 km/h (1 Bft) SO 225 0 min 0 W/m 9,8 C 14,8 C 2,9 km/h (1 Bft)
19/07/2012 01:50 14,5 C 73 % 1016,8 hPa 0,0 mm 0,4 km/h (0 Bft) S-SO 202 0 min 0 W/m 9,7 C 14,5 C 0,4 km/h (0 Bft)
19/07/2012 02:00 14,3 C 74 % 1016,8 hPa 0,0 mm 1,1 km/h (1 Bft) SO 225 0 min 0 W/m 9,7 C 14,3 C 3,6 km/h (1 Bft)
19/07/2012 02:10 14,1 C 76 % 1016,7 hPa 0,0 mm 2,5 km/h (1 Bft) SO 225 0 min 0 W/m 9,9 C 14,1 C 4,3 km/h (1 Bft)
19/07/2012 02:20 13,9 C 77 % 1016,7 hPa 0,0 mm 2,2 km/h (1 Bft) S-SO 202 0 min 0 W/m 9,9 C 13,9 C 4,3 km/h (1 Bft)
19/07/2012 02:30 13,8 C 79 % 1016,7 hPa 0,0 mm 4,3 km/h (1 Bft) SO 225 0 min 0 W/m 10,2 C 13,8 C 7,6 km/h (2 Bft)
19/07/2012 02:40 13,6 C 79 % 1016,7 hPa 0,0 mm 2,5 km/h (1 Bft) S-SO 202 0 min 0 W/m 10,0 C 13,6 C 6,1 km/h (2 Bft)
19/07/2012 02:50 13,5 C 80 % 1016,7 hPa 0,0 mm 2,2 km/h (1 Bft) S 180 0 min 0 W/m 10,1 C 13,5 C 3,6 km/h (1 Bft)
19/07/2012 03:02 13,4 C 80 % 1016,7 hPa 0,0 mm 3,2 km/h (1 Bft) S-SO 202 0 min 0 W/m 10,0 C 13,4 C 4,3 km/h (1 Bft)
19/07/2012 03:10 13,3 C 81 % 1016,8 hPa 0,0 mm 3,6 km/h (1 Bft) S-SO 202 0 min 0 W/m 10,1 C 13,3 C 6,5 km/h (2 Bft)
19/07/2012 03:20 13,1 C 81 % 1016,7 hPa 0,0 mm 0,4 km/h (0 Bft) S-SO 202 0 min 0 W/m 9,9 C 13,1 C 1,4 km/h (1 Bft)
19/07/2012 03:30 12,9 C 83 % 1016,7 hPa 0,0 mm 0,7 km/h (0 Bft) S-SO 202 0 min 0 W/m 10,1 C 12,9 C 0,7 km/h (0 Bft)
19/07/2012 03:40 12,8 C 83 % 1016,7 hPa 0,0 mm 4,0 km/h (1 Bft) SO 225 0 min 0 W/m 10,0 C 12,8 C 6,1 km/h (2 Bft)
19/07/2012 03:50 12,8 C 85 % 1016,7 hPa 0,0 mm 1,4 km/h (1 Bft) S-SO 202 0 min 0 W/m 10,3 C 12,8 C 6,8 km/h (2 Bft)
19/07/2012 04:00 12,9 C 85 % 1016,7 hPa 0,0 mm 4,0 km/h (1 Bft) S 180 0 min 0 W/m 10,4 C 12,9 C 7,6 km/h (2 Bft)
19/07/2012 04:10 13,1 C 86 % 1016,7 hPa 0,0 mm 0,4 km/h (0 Bft) S-SE 157 0 min 0 W/m 10,8 C 13,1 C 4,3 km/h (1 Bft)
19/07/2012 04:20 13,3 C 87 % 1016,7 hPa 0,0 mm 2,2 km/h (1 Bft) O 270 0 min 0 W/m 11,2 C 13,3 C 4,0 km/h (1 Bft)
19/07/2012 04:30 13,4 C 87 % 1016,8 hPa 0,0 mm 0,7 km/h (0 Bft) SO 225 0 min 0 W/m 11,3 C 13,4 C 3,2 km/h (1 Bft)
19/07/2012 04:40 13,5 C 88 % 1016,8 hPa 0,0 mm 0,0 km/h (0 Bft) S-SO 202 0 min 0 W/m 11,6 C 13,5 C 2,9 km/h (1 Bft)
19/07/2012 04:50 13,6 C 88 % 1016,8 hPa 0,0 mm 0,0 km/h (0 Bft) O 270 0 min 0 W/m 11,6 C 13,6 C 4,0 km/h (1 Bft)
19/07/2012 05:00 13,6 C 88 % 1016,8 hPa 0,0 mm 0,7 km/h (0 Bft) O 270 0 min 0 W/m 11,6 C 13,6 C 0,7 km/h (0 Bft)
19/07/2012 05:10 13,6 C 88 % 1016,8 hPa 0,0 mm 0,0 km/h (0 Bft) SO 225 0 min 0 W/m 11,6 C 13,6 C 0,0 km/h (0 Bft)
19/07/2012 05:20 13,6 C 89 % 1016,6 hPa 0,0 mm 0,0 km/h (0 Bft) S 180 0 min 0 W/m 11,8 C 13,6 C 3,6 km/h (1 Bft)
19/07/2012 05:30 13,7 C 89 % 1016,6 hPa 0,0 mm 2,2 km/h (1 Bft) O 270 0 min 0 W/m 11,9 C 13,7 C 3,2 km/h (1 Bft)
19/07/2012 05:40 13,8 C 89 % 1016,7 hPa 0,0 mm 0,0 km/h (0 Bft) O 270 0 min 0 W/m 12,0 C 13,8 C 0,0 km/h (0 Bft)
19/07/2012 05:50 13,8 C 90 % 1016,6 hPa 0,0 mm 0,0 km/h (0 Bft) O-SO 247 0 min 0 W/m 12,2 C 13,8 C 0,0 km/h (0 Bft)
19/07/2012 06:00 13,9 C 90 % 1016,7 hPa 0,0 mm 0,0 km/h (0 Bft) S-SO 202 0 min 0 W/m 12,3 C 13,9 C 0,0 km/h (0 Bft)
19/07/2012 06:10 14,0 C 90 % 1016,7 hPa 0,0 mm 0,0 km/h (0 Bft) SO 225 0 min 0 W/m 12,4 C 14,0 C 0,0 km/h (0 Bft)
19/07/2012 06:20 14,1 C 90 % 1016,7 hPa 0,0 mm 0,0 km/h (0 Bft) S-SO 202 0 min 0 W/m 12,5 C 14,1 C 3,2 km/h (1 Bft)
19/07/2012 06:30 14,1 C 90 % 1016,7 hPa 0,0 mm 0,0 km/h (0 Bft) S 180 0 min 0 W/m 12,5 C 14,1 C 0,0 km/h (0 Bft)
19/07/2012 06:40 14,3 C 91 % 1016,7 hPa 0,0 mm 0,0 km/h (0 Bft) S 180 0 min 0 W/m 12,8 C 14,3 C 0,0 km/h (0 Bft)
19/07/2012 06:50 14,3 C 91 % 1016,7 hPa 0,0 mm 0,0 km/h (0 Bft) N 360 0 min 0 W/m 12,8 C 14,3 C 0,0 km/h (0 Bft)
19/07/2012 07:00 14,3 C 91 % 1016,7 hPa 0,0 mm 2,5 km/h (1 Bft) S-SO 202 0 min 0 W/m 12,8 C 14,3 C 4,0 km/h (1 Bft)
19/07/2012 07:10 14,3 C 91 % 1016,7 hPa 0,0 mm 0,0 km/h (0 Bft) S-SO 202 0 min 0 W/m 12,8 C 14,3 C 3,2 km/h (1 Bft)
19/07/2012 07:20 14,4 C 91 % 1016,7 hPa 0,0 mm 3,2 km/h (1 Bft) S-SO 202 0 min 0 W/m 12,9 C 14,4 C 6,8 km/h (2 Bft)
19/07/2012 07:30 14,4 C 91 % 1016,6 hPa 0,0 mm 1,1 km/h (1 Bft) S 180 0 min 0 W/m 12,9 C 14,4 C 6,1 km/h (2 Bft)
19/07/2012 07:40 14,8 C 91 % 1016,7 hPa 0,0 mm 1,4 km/h (1 Bft) SO 225 0 min 0 W/m 13,3 C 14,8 C 3,2 km/h (1 Bft)
19/07/2012 07:50 14,9 C 91 % 1016,8 hPa 0,0 mm 3,6 km/h (1 Bft) S-SO 202 0 min 0 W/m 13,4 C 14,9 C 6,8 km/h (2 Bft)
19/07/2012 08:00 14,9 C 92 % 1016,9 hPa 0,0 mm 3,6 km/h (1 Bft) O-SO 247 0 min 0 W/m 13,6 C 14,9 C 3,6 km/h (1 Bft)
19/07/2012 08:10 15,1 C 92 % 1016,9 hPa 0,0 mm 6,5 km/h (2 Bft) O-SO 247 0 min 0 W/m 13,8 C 15,1 C 10,4 km/h (2 Bft)
19/07/2012 08:20 15,1 C 92 % 1017,0 hPa 0,0 mm 4,3 km/h (1 Bft) S-SO 202 0 min 0 W/m 13,8 C 15,1 C 8,3 km/h (2 Bft)
19/07/2012 08:30 15,2 C 92 % 1017,1 hPa 0,0 mm 3,2 km/h (1 Bft) S 180 0 min 0 W/m 13,9 C 15,2 C 3,6 km/h (1 Bft)
19/07/2012 08:40 15,3 C 92 % 1017,0 hPa 0,0 mm 5,0 km/h (1 Bft) S-SO 202 0 min 0 W/m 14,0 C 15,3 C 8,6 km/h (2 Bft)
19/07/2012 08:50 15,4 C 92 % 1017,2 hPa 0,0 mm 3,2 km/h (1 Bft) S-SO 202 0 min 0 W/m 14,1 C 15,4 C 4,3 km/h (1 Bft)
19/07/2012 09:00 15,4 C 93 % 1017,2 hPa 0,0 mm 5,8 km/h (2 Bft) SO 225 0 min 0 W/m 14,3 C 15,4 C 14,8 km/h (3 Bft)
19/07/2012 09:10 15,5 C 93 % 1017,3 hPa 0,0 mm 4,7 km/h (1 Bft) SO 225 0 min 0 W/m 14,4 C 15,5 C 7,9 km/h (2 Bft)
19/07/2012 09:20 15,6 C 93 % 1017,3 hPa 0,0 mm 7,2 km/h (2 Bft) SO 225 0 min 0 W/m 14,5 C 15,6 C 10,1 km/h (2 Bft)
19/07/2012 09:30 15,8 C 93 % 1017,3 hPa 0,0 mm 4,7 km/h (1 Bft) S-SO 202 0 min 0 W/m 14,7 C 15,8 C 7,6 km/h (2 Bft)
19/07/2012 09:40 15,9 C 93 % 1017,2 hPa 0,0 mm 6,8 km/h (2 Bft) SO 225 0 min 0 W/m 14,8 C 15,9 C 10,4 km/h (2 Bft)
19/07/2012 09:50 16,1 C 92 % 1017,3 hPa 0,0 mm 6,1 km/h (2 Bft) S-SO 202 0 min 0 W/m 14,8 C 16,1 C 9,7 km/h (2 Bft)
19/07/2012 10:00 16,2 C 92 % 1017,3 hPa 0,0 mm 6,5 km/h (2 Bft) SO 225 0 min 0 W/m 14,9 C 16,2 C 8,6 km/h (2 Bft)
19/07/2012 10:10 16,3 C 92 % 1017,2 hPa 0,0 mm 6,1 km/h (2 Bft) S-SO 202 0 min 0 W/m 15,0 C 16,3 C 10,1 km/h (2 Bft)
19/07/2012 10:20 16,4 C 92 % 1017,2 hPa 0,0 mm 7,6 km/h (2 Bft) SO 225 0 min 0 W/m 15,1 C 16,4 C 10,8 km/h (2 Bft)
19/07/2012 10:30 16,6 C 92 % 1017,1 hPa 0,0 mm 7,2 km/h (2 Bft) O-SO 247 0 min 0 W/m 15,3 C 16,6 C 8,6 km/h (2 Bft)
19/07/2012 10:40 16,8 C 91 % 1017,2 hPa 0,0 mm 3,2 km/h (1 Bft) O-SO 247 0 min 0 W/m 15,3 C 16,8 C 3,6 km/h (1 Bft)
19/07/2012 10:50 16,8 C 91 % 1017,1 hPa 0,0 mm 7,9 km/h (2 Bft) SO 225 0 min 0 W/m 15,3 C 16,8 C 9,4 km/h (2 Bft)
19/07/2012 11:00 16,9 C 91 % 1017,1 hPa 0,0 mm 5,0 km/h (1 Bft) S-SO 202 0 min 0 W/m 15,4 C 16,9 C 9,4 km/h (2 Bft)
19/07/2012 11:10 16,9 C 90 % 1017,4 hPa 0,3 mm 2,9 km/h (1 Bft) O-SO 247 0 min 0 W/m 15,2 C 16,9 C 8,6 km/h (2 Bft)
19/07/2012 11:20 16,8 C 90 % 1017,4 hPa 0,0 mm 1,8 km/h (1 Bft) O-SO 247 0 min 0 W/m 15,1 C 16,8 C 1,8 km/h (1 Bft)
19/07/2012 11:30 16,9 C 90 % 1017,4 hPa 0,1 mm 4,7 km/h (1 Bft) O 270 0 min 0 W/m 15,2 C 16,9 C 9,7 km/h (2 Bft)
19/07/2012 11:40 17,0 C 90 % 1017,4 hPa 0,0 mm 4,3 km/h (1 Bft) O 270 0 min 0 W/m 15,3 C 17,0 C 6,5 km/h (2 Bft)
19/07/2012 11:50 17,1 C 89 % 1017,4 hPa 0,0 mm 6,5 km/h (2 Bft) N-NO 337 0 min 0 W/m 15,3 C 17,1 C 10,8 km/h (2 Bft)
19/07/2012 12:00 17,5 C 89 % 1017,7 hPa 0,0 mm 6,5 km/h (2 Bft) N 360 0 min 0 W/m 15,7 C 17,5 C 6,5 km/h (2 Bft)
19/07/2012 12:10 18,0 C 88 % 1017,6 hPa 0,0 mm 5,4 km/h (2 Bft) O 270 0 min 0 W/m 16,0 C 18,0 C 13,3 km/h (3 Bft)
19/07/2012 12:20 18,6 C 86 % 1017,6 hPa 0,0 mm 2,2 km/h (1 Bft) O 270 0 min 0 W/m 16,2 C 18,6 C 2,9 km/h (1 Bft)
19/07/2012 12:30 19,3 C 85 % 1017,6 hPa 0,0 mm 1,8 km/h (1 Bft) SO 225 0 min 0 W/m 16,7 C 19,3 C 1,8 km/h (1 Bft)
19/07/2012 12:40 19,3 C 82 % 1017,5 hPa 0,0 mm 3,2 km/h (1 Bft) O-SO 247 0 min 0 W/m 16,1 C 19,3 C 4,3 km/h (1 Bft)
19/07/2012 12:50 19,4 C 82 % 1017,5 hPa 0,0 mm 1,4 km/h (1 Bft) SO 225 0 min 0 W/m 16,2 C 19,4 C 4,3 km/h (1 Bft)
19/07/2012 13:00 19,5 C 80 % 1017,5 hPa 0,0 mm 6,8 km/h (2 Bft) O-SO 247 0 min 0 W/m 16,0 C 19,5 C 19,1 km/h (3 Bft)
19/07/2012 13:10 19,2 C 80 % 1017,6 hPa 0,0 mm 4,7 km/h (1 Bft) S-SE 157 0 min 0 W/m 15,7 C 19,2 C 4,7 km/h (1 Bft)
19/07/2012 13:20 18,9 C 82 % 1017,6 hPa 0,0 mm 0,7 km/h (0 Bft) S-SO 202 0 min 0 W/m 15,8 C 18,9 C 4,3 km/h (1 Bft)
19/07/2012 13:30 19,1 C 82 % 1017,5 hPa 0,0 mm 0,7 km/h (0 Bft) N 360 0 min 0 W/m 16,0 C 19,1 C 0,7 km/h (0 Bft)
19/07/2012 13:40 19,5 C 80 % 1017,4 hPa 0,0 mm 5,8 km/h (2 Bft) N 360 0 min 0 W/m 16,0 C 19,5 C 11,2 km/h (2 Bft)
19/07/2012 13:50 20,1 C 79 % 1017,4 hPa 0,0 mm 1,1 km/h (1 Bft) O-SO 247 0 min 0 W/m 16,3 C 20,1 C 1,1 km/h (1 Bft)
19/07/2012 14:00 20,6 C 76 % 1017,3 hPa 0,0 mm 1,8 km/h (1 Bft) O-SO 247 0 min 0 W/m 16,2 C 20,6 C 3,2 km/h (1 Bft)
19/07/2012 14:10 21,1 C 75 % 1017,2 hPa 0,0 mm 4,7 km/h (1 Bft) O 270 0 min 0 W/m 16,5 C 21,1 C 14,0 km/h (3 Bft)
19/07/2012 14:20 21,6 C 73 % 1017,2 hPa 0,0 mm 2,9 km/h (1 Bft) S-SO 202 0 min 0 W/m 16,5 C 21,6 C 11,5 km/h (2 Bft)
19/07/2012 14:30 21,8 C 71 % 1017,1 hPa 0,0 mm 9,4 km/h (2 Bft) NO 315 0 min 0 W/m 16,3 C 21,8 C 19,8 km/h (3 Bft)
19/07/2012 14:40 21,6 C 70 % 1017,0 hPa 0,0 mm 6,5 km/h (2 Bft) O-SO 247 0 min 0 W/m 15,9 C 21,6 C 9,4 km/h (2 Bft)
19/07/2012 14:50 21,7 C 69 % 1016,9 hPa 0,0 mm 6,8 km/h (2 Bft) O-SO 247 0 min 0 W/m 15,8 C 21,7 C 11,2 km/h (2 Bft)
19/07/2012 15:00 21,9 C 71 % 1016,6 hPa 0,0 mm 2,2 km/h (1 Bft) SO 225 0 min 0 W/m 16,4 C 21,9 C 2,2 km/h (1 Bft)
19/07/2012 15:10 22,3 C 68 % 1016,7 hPa 0,0 mm 5,0 km/h (1 Bft) O 270 0 min 0 W/m 16,1 C 22,3 C 11,5 km/h (2 Bft)
19/07/2012 15:20 22,4 C 66 % 1016,7 hPa 0,0 mm 6,8 km/h (2 Bft) SO 225 0 min 0 W/m 15,7 C 22,4 C 8,3 km/h (2 Bft)
19/07/2012 15:30 22,6 C 65 % 1016,6 hPa 0,0 mm 12,2 km/h (2 Bft) S-SO 202 0 min 0 W/m 15,7 C 22,6 C 18,7 km/h (3 Bft)
19/07/2012 15:40 22,8 C 63 % 1016,6 hPa 0,0 mm 11,5 km/h (2 Bft) SO 225 0 min 0 W/m 15,4 C 22,8 C 15,8 km/h (3 Bft)
19/07/2012 15:50 23,0 C 62 % 1016,6 hPa 0,0 mm 10,1 km/h (2 Bft) S-SO 202 0 min 0 W/m 15,3 C 23,0 C 12,2 km/h (2 Bft)
19/07/2012 16:00 23,1 C 62 % 1016,6 hPa 0,0 mm 1,4 km/h (1 Bft) O 270 0 min 0 W/m 15,4 C 23,1 C 5,8 km/h (2 Bft)
19/07/2012 16:10 23,3 C 61 % 1016,5 hPa 0,0 mm 2,2 km/h (1 Bft) O 270 0 min 0 W/m 15,3 C 23,3 C 3,6 km/h (1 Bft)
19/07/2012 16:20 23,2 C 60 % 1016,5 hPa 0,0 mm 11,9 km/h (2 Bft) O-SO 247 0 min 0 W/m 15,0 C 23,2 C 19,4 km/h (3 Bft)
19/07/2012 16:30 23,5 C 57 % 1016,4 hPa 0,0 mm 6,8 km/h (2 Bft) O-SO 247 0 min 0 W/m 14,5 C 23,5 C 11,9 km/h (2 Bft)
19/07/2012 16:40 23,6 C 57 % 1016,4 hPa 0,0 mm 5,0 km/h (1 Bft) SO 225 0 min 0 W/m 14,6 C 23,6 C 5,0 km/h (1 Bft)
19/07/2012 16:50 23,8 C 57 % 1016,3 hPa 0,0 mm 7,9 km/h (2 Bft) SO 225 0 min 0 W/m 14,8 C 23,8 C 8,3 km/h (2 Bft)
19/07/2012 17:00 23,9 C 55 % 1016,2 hPa 0,0 mm 7,9 km/h (2 Bft) S-SO 202 0 min 0 W/m 14,3 C 23,9 C 14,4 km/h (3 Bft)
19/07/2012 17:10 23,8 C 55 % 1016,1 hPa 0,0 mm 6,1 km/h (2 Bft) SO 225 0 min 0 W/m 14,2 C 23,8 C 6,8 km/h (2 Bft)
19/07/2012 17:20 23,6 C 54 % 1016,0 hPa 0,0 mm 9,4 km/h (2 Bft) O-NO 292 0 min 0 W/m 13,7 C 23,6 C 9,4 km/h (2 Bft)
19/07/2012 17:30 23,6 C 53 % 1016,1 hPa 0,0 mm 4,7 km/h (1 Bft) O 270 0 min 0 W/m 13,4 C 23,6 C 4,7 km/h (1 Bft)
19/07/2012 17:40 23,9 C 54 % 1016,0 hPa 0,0 mm 0,7 km/h (0 Bft) SO 225 0 min 0 W/m 14,0 C 23,9 C 3,6 km/h (1 Bft)
19/07/2012 17:50 24,1 C 51 % 1015,9 hPa 0,0 mm 5,0 km/h (1 Bft) O-SO 247 0 min 0 W/m 13,3 C 24,1 C 9,4 km/h (2 Bft)
19/07/2012 18:00 24,2 C 49 % 1015,8 hPa 0,0 mm 11,2 km/h (2 Bft) S-SO 202 0 min 0 W/m 12,8 C 24,2 C 16,2 km/h (3 Bft)
19/07/2012 18:10 24,0 C 52 % 1015,7 hPa 0,0 mm 4,3 km/h (1 Bft) S-SO 202 0 min 0 W/m 13,5 C 24,0 C 13,0 km/h (3 Bft)
19/07/2012 18:20 24,1 C 52 % 1015,6 hPa 0,0 mm 4,7 km/h (1 Bft) O-NO 292 0 min 0 W/m 13,6 C 24,1 C 4,7 km/h (1 Bft)
19/07/2012 18:30 23,9 C 52 % 1015,6 hPa 0,0 mm 8,3 km/h (2 Bft) SO 225 0 min 0 W/m 13,4 C 23,9 C 14,0 km/h (3 Bft)
19/07/2012 18:40 23,8 C 50 % 1015,5 hPa 0,0 mm 5,8 km/h (2 Bft) O-SO 247 0 min 0 W/m 12,7 C 23,8 C 9,0 km/h (2 Bft)
19/07/2012 18:50 23,4 C 52 % 1015,5 hPa 0,0 mm 4,7 km/h (1 Bft) SO 225 0 min 0 W/m 13,0 C 23,4 C 9,4 km/h (2 Bft)
19/07/2012 19:00 23,4 C 53 % 1015,6 hPa 0,0 mm 3,6 km/h (1 Bft) SO 225 0 min 0 W/m 13,3 C 23,4 C 7,2 km/h (2 Bft)
19/07/2012 19:10 23,2 C 54 % 1015,6 hPa 0,0 mm 1,8 km/h (1 Bft) O 270 0 min 0 W/m 13,4 C 23,2 C 3,2 km/h (1 Bft)
19/07/2012 19:20 22,9 C 54 % 1015,6 hPa 0,0 mm 5,8 km/h (2 Bft) O 270 0 min 0 W/m 13,1 C 22,9 C 6,5 km/h (2 Bft)
19/07/2012 19:30 22,8 C 52 % 1015,4 hPa 0,0 mm 5,4 km/h (2 Bft) O-SO 247 0 min 0 W/m 12,4 C 22,8 C 7,9 km/h (2 Bft)
19/07/2012 19:40 22,5 C 55 % 1015,4 hPa 0,0 mm 2,2 km/h (1 Bft) SO 225 0 min 0 W/m 13,0 C 22,5 C 4,3 km/h (1 Bft)
19/07/2012 19:50 22,3 C 56 % 1015,3 hPa 0,0 mm 1,8 km/h (1 Bft) O-SO 247 0 min 0 W/m 13,1 C 22,3 C 4,7 km/h (1 Bft)
19/07/2012 20:00 22,0 C 56 % 1015,3 hPa 0,0 mm 2,9 km/h (1 Bft) O 270 0 min 0 W/m 12,8 C 22,0 C 11,2 km/h (2 Bft)
19/07/2012 20:10 21,8 C 56 % 1015,4 hPa 0,0 mm 2,5 km/h (1 Bft) SO 225 0 min 0 W/m 12,6 C 21,8 C 2,5 km/h (1 Bft)
19/07/2012 20:20 21,4 C 57 % 1015,4 hPa 0,0 mm 2,5 km/h (1 Bft) O-SO 247 0 min 0 W/m 12,5 C 21,4 C 8,6 km/h (2 Bft)
19/07/2012 20:30 21,1 C 58 % 1015,3 hPa 0,0 mm 4,3 km/h (1 Bft) O 270 0 min 0 W/m 12,5 C 21,1 C 6,8 km/h (2 Bft)
19/07/2012 20:40 20,8 C 60 % 1015,3 hPa 0,0 mm 1,8 km/h (1 Bft) SO 225 0 min 0 W/m 12,7 C 20,8 C 6,1 km/h (2 Bft)
19/07/2012 20:50 20,5 C 61 % 1015,4 hPa 0,0 mm 2,2 km/h (1 Bft) O-SO 247 0 min 0 W/m 12,7 C 20,5 C 2,2 km/h (1 Bft)
19/07/2012 21:00 20,2 C 62 % 1015,5 hPa 0,0 mm 2,5 km/h (1 Bft) O-SO 247 0 min 0 W/m 12,7 C 20,2 C 4,3 km/h (1 Bft)
19/07/2012 21:10 19,8 C 63 % 1015,4 hPa 0,0 mm 2,9 km/h (1 Bft) S-SO 202 0 min 0 W/m 12,5 C 19,8 C 4,3 km/h (1 Bft)
19/07/2012 21:20 19,6 C 65 % 1015,5 hPa 0,0 mm 1,8 km/h (1 Bft) S-SO 202 0 min 0 W/m 12,8 C 19,6 C 5,8 km/h (2 Bft)
19/07/2012 21:30 19,3 C 65 % 1015,5 hPa 0,0 mm 1,8 km/h (1 Bft) SO 225 0 min 0 W/m 12,6 C 19,3 C 3,6 km/h (1 Bft)
19/07/2012 21:40 18,8 C 66 % 1015,7 hPa 0,0 mm 3,2 km/h (1 Bft) O 270 0 min 0 W/m 12,3 C 18,8 C 4,3 km/h (1 Bft)
19/07/2012 21:50 18,4 C 67 % 1015,7 hPa 0,0 mm 0,0 km/h (0 Bft) SO 225 0 min 0 W/m 12,2 C 18,4 C 0,0 km/h (0 Bft)
19/07/2012 22:00 18,0 C 68 % 1015,8 hPa 0,0 mm 0,0 km/h (0 Bft) S-SO 202 0 min 0 W/m 12,0 C 18,0 C 0,0 km/h (0 Bft)
19/07/2012 22:10 17,6 C 69 % 1015,7 hPa 0,0 mm 0,7 km/h (0 Bft) SO 225 0 min 0 W/m 11,8 C 17,6 C 3,6 km/h (1 Bft)
19/07/2012 22:20 17,2 C 70 % 1015,8 hPa 0,0 mm 0,0 km/h (0 Bft) SO 225 0 min 0 W/m 11,7 C 17,2 C 0,0 km/h (0 Bft)
19/07/2012 22:30 16,9 C 71 % 1015,9 hPa 0,0 mm 1,1 km/h (1 Bft) S-SO 202 0 min 0 W/m 11,6 C 16,9 C 3,6 km/h (1 Bft)
19/07/2012 22:40 16,6 C 71 % 1016,0 hPa 0,0 mm 2,5 km/h (1 Bft) S-SO 202 0 min 0 W/m 11,3 C 16,6 C 4,0 km/h (1 Bft)
19/07/2012 22:50 16,4 C 71 % 1016,0 hPa 0,0 mm 0,0 km/h (0 Bft) SO 225 0 min 0 W/m 11,1 C 16,4 C 0,0 km/h (0 Bft)
19/07/2012 23:00 16,2 C 72 % 1016,0 hPa 0,0 mm 2,9 km/h (1 Bft) S-SO 202 0 min 0 W/m 11,1 C 16,2 C 4,3 km/h (1 Bft)
19/07/2012 23:10 15,9 C 72 % 1016,1 hPa 0,0 mm 0,0 km/h (0 Bft) SO 225 0 min 0 W/m 10,9 C 15,9 C 1,4 km/h (1 Bft)
19/07/2012 23:20 15,7 C 73 % 1016,1 hPa 0,0 mm 0,4 km/h (0 Bft) SO 225 0 min 0 W/m 10,9 C 15,7 C 1,4 km/h (1 Bft)
19/07/2012 23:30 15,5 C 73 % 1016,1 hPa 0,0 mm 1,4 km/h (1 Bft) S-SO 202 0 min 0 W/m 10,7 C 15,5 C 1,4 km/h (1 Bft)
19/07/2012 23:40 15,3 C 74 % 1016,0 hPa 0,0 mm 2,5 km/h (1 Bft) S-SO 202 0 min 0 W/m 10,7 C 15,3 C 3,2 km/h (1 Bft)
19/07/2012 23:50 15,1 C 74 % 1015,9 hPa 0,0 mm 2,2 km/h (1 Bft) SO 225 0 min 0 W/m 10,5 C 15,1 C 4,0 km/h (1 Bft)
_ Min-Heure 03:50 18:00 20:40 - 23:10 - - - - 00:20 03:50 22:50
Minimum _ 12,8 C 49 % 1015,3 hPa - 0,0 km/h (0 Bft) - - - - 8,3 C 12,8 C 0,0 km/h (0 Bft)
_ Max-Heure 18:00 09:40 12:00 11:10 15:30 - - 23:50 23:50 12:30 18:00 14:30
Maximum _ 24,2 C 93 % 1017,7 hPa 0,3 mm 12,2 km/h
S-SO (2 Bft)
- - 0 min 0 W/m 16,7 C 24,2 C 19,8 km/h
NO (3 Bft)
Moyenne _ 17,8 C 75 % 1016,6 hPa #0,4 mm 3,3 km/h (1 Bft) S-SO - #0 min. 0 W/m 13,0 C 17,8 C 5,9 km/h (2 Bft)
Saint Bonnet de Bellac- Haute Vienne - France